Weather History for KPSC - September, 2012

Change the Weather History Date:

Saturday, September 1, 2012

  Actual Average Record
Temperature  
Mean Temperature 63 °F 69 °F  
Max Temperature 81 °F 86 °F 103 °F (1998)
Min Temperature 44 °F 51 °F 41 °F (1999)
Degree Days  
Heating Degree Days 2 1  
Month to date heating degree days 2 1  
Since 1 July heating degree days 7 13  
Cooling Degree Days 0 4  
Month to date cooling degree days 0 4  
Year to date cooling degree days 753 661  
Growing Degree Days 12 (Base 50)    
Moisture  
Dew Point 39 °F    
Average Humidity 56    
Maximum Humidity 93    
Minimum Humidity 19    
Precipitation  
Precipitation 0.00 in 0.01 in 0.63 in (1971)
Month to date precipitation 0.00 0.01  
Year to date precipitation 6.41 5.49  
Snow  
Snow 0.00 in - - ()
Snow Depth 0.00 in    
Sea Level Pressure  
Sea Level Pressure 29.98 in    
Wind  
Wind Speed 3 mph (East)    
Max Wind Speed 15 mph    
Max Gust Speed 18 mph    
Visibility 10 miles    
Events      
T = Trace of Precipitation, MM = Missing Value Source: NWS Daily Summary

Daily Weather History Graph

Daily Weather History Graph

Search for Another Location

Airport or City:

Trip Planner

Search our weather history database for the weather conditions in past years. The results will help you decide how hot, cold, wet, or windy it might be!

Date:

Astronomy

Sep. 01, 2012 Rise Set
Actual Time 6:17 AM PDT 7:34 PM PDT
Civil Twilight 5:46 AM PDT 8:04 PM PDT
Nautical Twilight 5:09 AM PDT 8:42 PM PDT
Astronomical Twilight 4:29 AM PDT 9:21 PM PDT
Moon 7:43 PM PDT (9/1) 7:38 AM PDT (9/1)
Length of Visible Light 14h 18m
Length of Day
13h 16m
Full, 98% of the Moon is Illuminated
Sep 1
Full
Sep 8
Last Quarter
Sep 15
New
Sep 22
First Quarter
Sep 29
Full

Hourly Weather History & Observations

Time (PDT) Temp. Windchill Dew Point Humidity Pressure Visibility Wind Dir Wind Speed Gust Speed Precip Events Conditions
12:53 AM 61.0 °F - 46.9 °F 60% 29.86 in 10.0 mi West 5.8 mph - N/A   Clear
1:53 AM 59.0 °F - 44.1 °F 58% 29.88 in 10.0 mi ESE 3.5 mph - N/A   Clear
2:53 AM 52.0 °F - 45.0 °F 77% 29.90 in 10.0 mi Calm Calm - N/A   Clear
3:53 AM 52.0 °F - 45.0 °F 77% 29.92 in 10.0 mi Calm Calm - N/A   Clear
4:53 AM 46.9 °F - 44.1 °F 90% 29.94 in 10.0 mi Variable 3.5 mph - N/A   Clear
5:53 AM 45.0 °F 42.6 °F 43.0 °F 93% 29.96 in 10.0 mi NNE 4.6 mph - N/A   Clear
6:53 AM 44.1 °F - 43.0 °F 96% 29.99 in 10.0 mi Calm Calm - N/A   Clear
7:53 AM 54.0 °F - 46.9 °F 77% 30.01 in 10.0 mi Calm Calm - N/A   Clear
8:53 AM 62.1 °F - 43.0 °F 50% 30.03 in 10.0 mi Calm Calm - N/A   Clear
9:53 AM 66.9 °F - 39.0 °F 36% 30.04 in 10.0 mi Calm Calm - N/A   Clear
10:53 AM 71.1 °F - 35.1 °F 27% 30.04 in 10.0 mi Variable 3.5 mph - N/A   Clear
11:53 AM 73.0 °F - 35.1 °F 25% 30.04 in 10.0 mi NNW 4.6 mph - N/A   Clear
12:53 PM 75.0 °F - 33.1 °F 22% 30.03 in 10.0 mi NNE 5.8 mph - N/A   Clear
1:53 PM 77.0 °F - 35.1 °F 22% 30.02 in 10.0 mi NNW 3.5 mph - N/A   Clear
2:53 PM 79.0 °F - 33.1 °F 19% 30.00 in 10.0 mi SSE 9.2 mph - N/A   Clear
3:53 PM 79.0 °F - 34.0 °F 20% 29.99 in 10.0 mi Variable 3.5 mph - N/A   Clear
4:53 PM 80.1 °F - 39.0 °F 23% 29.97 in 10.0 mi NW 4.6 mph - N/A   Clear
5:53 PM 79.0 °F - 37.0 °F 22% 29.97 in 10.0 mi South 6.9 mph - N/A   Clear
6:53 PM 79.0 °F - 36.0 °F 21% 29.97 in 10.0 mi SSE 5.8 mph - N/A   Clear
7:53 PM 75.0 °F - 32.0 °F 21% 29.97 in 10.0 mi SSW 6.9 mph - N/A   Clear
8:53 PM 70.0 °F - 32.0 °F 25% 29.99 in 10.0 mi Calm Calm - N/A   Clear
9:53 PM 63.0 °F - 36.0 °F 37% 30.00 in 10.0 mi ENE 3.5 mph - N/A   Clear
10:53 PM 63.0 °F - 37.9 °F 40% 30.01 in 10.0 mi Calm Calm - N/A   Clear
11:53 PM 66.0 °F - 36.0 °F 33% 30.03 in 10.0 mi SSE 3.5 mph - N/A   Clear